QPF
0.00 0.00 0.00 0.00 0.00 0.00 0.00 0.05 0.08 0.05 0.04 0.01 0.02 0.01 0.01 0.02 0.01 0.01 0.01 0.00 0.00 0.00 0.00 0.00 0.00 0.00 0.00 0.00 0.00 0.00 0.00 0.01 0.01 0.00 0.00 0.00 0.00 0.00 0.00 0.00 0.00 0.00 0.00
0.00 0.00 0.00 0.00 0.00 0.01 0.05 0.04 0.02 0.02 0.01 0.00 0.00 0.00 0.00 0.00 0.00 0.00 0.00 0.00 0.00 0.00 0.00 0.00 0.00 0.00 0.00 0.00 0.00 0.00 0.00 0.01 0.02 0.01 0.00 0.00 0.00 0.00 0.00 0.01 0.00 0.00 0.00
0.00 0.00 0.00 0.00 0.00 0.00 0.00 0.00 0.00 0.00 0.00 0.00 0.00 0.00 0.00 0.00 0.00 0.00 0.00 0.00 0.00 0.00 0.00 0.00 0.00 0.00 0.01 0.01 0.01 0.00 0.00 0.00 0.01 0.00 0.00 0.00 0.01 0.01 0.03 0.02 0.02 0.01 0.00
0.00 0.00 0.00 0.00 0.00 0.00 0.00 0.00 0.00 0.00 0.00 0.00 0.00 0.00 0.00 0.00 0.00 0.00 0.00 0.00 0.00 0.00 0.00 0.00 0.00 0.01 0.00 0.01 0.00 0.01 0.01 0.01 0.01 0.01 0.00 0.01 0.02 0.06 0.07 0.06 0.03 0.03 0.02
0.00 0.00 0.00 0.00 0.00 0.00 0.00 0.00 0.00 0.00 0.00 0.00 0.00 0.00 0.00 0.00 0.00 0.00 0.00 0.00 0.00 0.00 0.00 0.00 0.00 0.00 0.01 0.01 0.00 0.01 0.01 0.02 0.02 0.01 0.02 0.03 0.03 0.06 0.08 0.04 0.05 0.02 0.02
0.00 0.00 0.00 0.00 0.00 0.00 0.00 0.00 0.00 0.00 0.00 0.00 0.00 0.00 0.00 0.00 0.00 0.00 0.00 0.00 0.00 0.00 0.00 0.00 0.00 0.00 0.00 0.00 0.00 0.00 0.00 0.00 0.01 0.02 0.03 0.04 0.04 0.06 0.06 0.03 0.02 0.02 0.02
0.00 0.00 0.00 0.00 0.00 0.00 0.00 0.00 0.00 0.00 0.00 0.00 0.00 0.00 0.00 0.00 0.00 0.00 0.00 0.00 0.00 0.00 0.00 0.01 0.00 0.00 0.00 0.00 0.00 0.00 0.01 0.00 0.01 0.02 0.02 0.03 0.04 0.03 0.03 0.01 0.03 0.05 0.04
0.00 0.00 0.00 0.00 0.00 0.00 0.00 0.00 0.00 0.00 0.00 0.00 0.00 0.00 0.00 0.00 0.00 0.00 0.00 0.00 0.00 0.00 0.00 0.01 0.00 0.00 0.00 0.00 0.00 0.00 0.01 0.00 0.00 0.00 0.00 0.01 0.00 0.00 0.02 0.02 0.03 0.04 0.07
0.00 0.00 0.00 0.00 0.00 0.00 0.00 0.00 0.00 0.00 0.00 0.00 0.00 0.00 0.00 0.00 0.00 0.00 0.00 0.00 0.00 0.00 0.00 0.00 0.00 0.00 0.00 0.00 0.00 0.00 0.00 0.00 0.00 0.00 0.00 0.00 0.00 0.01 0.05 0.04 0.03 0.09 0.05
0.00 0.00 0.00 0.00 0.00 0.00 0.00 0.00 0.00 0.00 0.00 0.00 0.00 0.00 0.00 0.00 0.00 0.00 0.00 0.00 0.00 0.00 0.00 0.00 0.00 0.00 0.00 0.00 0.00 0.00 0.00 0.00 0.00 0.00 0.00 0.00 0.00 0.00 0.01 0.04 0.07 0.05 0.02
0.00 0.00 0.00 0.00 0.00 0.00 0.00 0.00 0.00 0.00 0.00 0.00 0.00 0.00 0.00 0.00 0.00 0.00 0.00 0.00 0.00 0.00 0.00 0.00 0.00 0.00 0.00 0.00 0.00 0.00 0.00 0.00 0.00 0.00 0.00 0.00 0.00 0.00 0.00 0.00 0.01 0.02 0.01
0.00 0.00 0.00 0.00 0.00 0.00 0.00 0.00 0.00 0.00 0.00 0.00 0.00 0.00 0.00 0.00 0.00 0.00 0.00 0.00 0.00 0.00 0.00 0.00 0.00 0.00 0.00 0.00 0.00 0.00 0.00 0.00 0.00 0.00 0.00 0.00 0.00 0.00 0.00 0.00 0.00 0.00 0.00
0.00 0.00 0.00 0.00 0.00 0.00 0.00 0.00 0.00 0.00 0.00 0.00 0.00 0.00 0.00 0.00 0.00 0.00 0.00 0.00 0.00 0.00 0.00 0.00 0.00 0.00 0.00 0.00 0.00 0.00 0.00 0.00 0.00 0.00 0.00 0.00 0.00 0.00 0.00 0.00 0.00 0.00 0.00
0.00 0.00 0.00 0.00 0.00 0.00 0.00 0.00 0.00 0.00 0.00 0.00 0.00 0.00 0.00 0.00 0.00 0.00 0.00 0.00 0.00 0.00 0.00 0.00 0.00 0.00 0.00 0.00 0.00 0.00 0.00 0.00 0.00 0.00 0.00 0.00 0.00 0.00 0.00 0.00 0.00 0.00 0.00
0.00 0.00 0.00 0.00 0.00 0.00 0.00 0.00 0.00 0.00 0.00 0.00 0.00 0.00 0.00 0.00 0.00 0.00 0.00 0.00 0.00 0.00 0.00 0.00 0.00 0.00 0.00 0.00 0.00 0.00 0.00 0.00 0.00 0.00 0.00 0.00 0.00 0.00 0.00 0.00 0.00 0.00 0.00
0.00 0.00 0.00 0.00 0.00 0.00 0.00 0.00 0.00 0.00 0.00 0.00 0.00 0.00 0.00 0.00 0.00 0.00 0.00 0.00 0.00 0.00 0.00 0.00 0.00 0.00 0.00 0.00 0.00 0.00 0.00 0.00 0.00 0.00 0.00 0.00 0.00 0.00 0.00 0.00 0.00 0.00 0.00
0.00 0.00 0.00 0.00 0.00 0.00 0.00 0.00 0.00 0.00 0.00 0.00 0.00 0.00 0.00 0.00 0.00 0.00 0.00 0.00 0.00 0.00 0.00 0.00 0.00 0.00 0.00 0.00 0.00 0.00 0.00 0.00 0.00 0.00 0.00 0.00 0.00 0.00 0.00 0.00 0.00 0.00 0.00
0.00 0.00 0.00 0.00 0.00 0.00 0.00 0.00 0.00 0.00 0.00 0.00 0.00 0.00 0.00 0.00 0.00 0.00 0.00 0.00 0.00 0.00 0.00 0.00 0.00 0.00 0.00 0.00 0.00 0.00 0.00 0.00 0.00 0.00 0.00 0.00 0.00 0.00 0.00 0.00 0.00 0.00 0.00
0.00 0.00 0.00 0.00 0.00 0.00 0.00 0.00 0.00 0.00 0.00 0.00 0.00 0.00 0.00 0.00 0.00 0.00 0.00 0.00 0.00 0.00 0.00 0.00 0.00 0.00 0.00 0.00 0.00 0.00 0.00 0.00 0.00 0.00 0.00 0.00 0.00 0.00 0.00 0.00 0.00 0.00 0.00
0.00 0.00 0.00 0.00 0.00 0.00 0.00 0.00 0.00 0.00 0.00 0.00 0.00 0.00 0.00 0.00 0.00 0.00 0.00 0.00 0.00 0.00 0.00 0.00 0.00 0.00 0.00 0.00 0.00 0.00 0.00 0.00 0.00 0.00 0.00 0.00 0.00 0.00 0.00 0.00 0.00 0.00 0.00
0.00 0.00 0.00 0.00 0.00 0.00 0.00 0.00 0.00 0.00 0.00 0.00 0.00 0.00 0.00 0.00 0.00 0.00 0.00 0.00 0.00 0.00 0.00 0.00 0.00 0.00 0.00 0.00 0.00 0.00 0.00 0.00 0.00 0.00 0.00 0.00 0.00 0.00 0.00 0.00 0.00 0.00 0.00
0.00 0.00 0.00 0.00 0.00 0.00 0.00 0.00 0.00 0.00 0.00 0.00 0.00 0.00 0.00 0.00 0.00 0.00 0.00 0.00 0.00 0.00 0.00 0.00 0.00 0.00 0.00 0.00 0.00 0.00 0.00 0.00 0.00 0.00 0.00 0.00 0.00 0.00 0.00 0.00 0.00 0.00 0.00
0.00 0.00 0.00 0.00 0.00 0.00 0.00 0.00 0.00 0.00 0.00 0.00 0.00 0.00 0.00 0.00 0.00 0.00 0.00 0.00 0.00 0.00 0.00 0.00 0.00 0.00 0.00 0.00 0.00 0.00 0.00 0.00 0.00 0.00 0.00 0.00 0.00 0.00 0.00 0.00 0.00 0.00 0.00
0.00 0.00 0.00 0.00 0.00 0.00 0.00 0.00 0.00 0.00 0.00 0.00 0.00 0.00 0.00 0.00 0.00 0.00 0.00 0.00 0.00 0.00 0.00 0.00 0.00 0.00 0.00 0.00 0.00 0.00 0.00 0.00 0.00 0.00 0.00 0.00 0.00 0.00 0.00 0.00 0.00 0.00 0.00
0.00 0.00 0.00 0.00 0.00 0.00 0.00 0.00 0.00 0.00 0.00 0.00 0.00 0.00 0.00 0.00 0.00 0.00 0.00 0.00 0.00 0.00 0.00 0.00 0.00 0.00 0.00 0.00 0.00 0.00 0.00 0.00 0.00 0.00 0.00 0.00 0.00 0.00 0.00 0.00 0.00 0.00 0.00
0.00 0.00 0.00 0.00 0.00 0.00 0.00 0.00 0.00 0.00 0.00 0.00 0.00 0.00 0.00 0.00 0.00 0.00 0.00 0.00 0.00 0.00 0.00 0.00 0.00 0.00 0.00 0.00 0.00 0.00 0.00 0.00 0.00 0.00 0.00 0.00 0.00 0.00 0.00 0.00 0.00 0.00 0.00
MSLP
1011.36 1011.94 1012.62 1013.26 1013.73 1014.05 1014.28 1014.46 1014.78 1015.11 1015.55 1015.61 1015.62 1015.72 1015.80 1015.89 1015.87 1015.93 1015.91 1015.75 1015.70 1015.49 1015.34 1015.16 1014.90 1014.57 1014.41 1014.18 1013.89 1013.48 1013.44 1013.33 1012.89 1011.63 1011.64 1011.13 1010.76 1010.17 1009.82 1009.43 1009.06 1008.82 1008.50
1010.63 1011.41 1012.06 1012.62 1013.10 1013.46 1013.97 1014.57 1014.99 1015.34 1015.59 1015.74 1015.96 1016.04 1016.06 1016.07 1016.24 1016.25 1016.23 1016.29 1016.04 1015.83 1015.62 1015.30 1015.07 1014.71 1014.58 1014.34 1014.17 1014.15 1014.06 1013.62 1013.35 1012.49 1012.17 1011.69 1011.27 1010.61 1010.17 1009.88 1009.16 1008.58 1008.29
1010.12 1010.92 1011.57 1012.23 1012.79 1013.76 1014.35 1014.76 1015.06 1015.42 1015.69 1015.85 1015.94 1016.10 1016.28 1016.58 1016.93 1017.06 1017.12 1016.94 1016.70 1016.45 1016.14 1015.65 1015.29 1015.10 1015.18 1014.90 1014.45 1014.06 1013.87 1013.99 1013.62 1013.01 1012.34 1011.83 1011.15 1010.50 1010.24 1009.72 1009.25 1008.73 1008.20
1009.91 1010.81 1011.61 1012.36 1013.21 1013.93 1014.56 1015.03 1015.52 1015.78 1016.05 1016.23 1016.44 1016.57 1017.15 1017.68 1017.96 1017.96 1017.79 1017.47 1017.13 1016.78 1016.34 1015.90 1015.59 1015.66 1015.64 1015.65 1015.12 1014.78 1014.49 1014.55 1014.00 1013.40 1012.57 1011.85 1011.24 1010.58 1010.25 1009.74 1009.32 1008.73 1008.35
1009.95 1010.96 1011.93 1012.76 1013.41 1014.13 1014.83 1015.30 1015.72 1016.00 1016.33 1016.73 1016.93 1017.03 1017.55 1018.31 1018.89 1018.79 1018.21 1017.79 1017.55 1016.99 1016.41 1016.35 1016.16 1016.04 1015.97 1016.00 1016.12 1015.77 1015.37 1014.95 1014.25 1013.40 1012.67 1011.98 1011.36 1010.77 1010.35 1009.86 1009.60 1008.93 1008.13
1010.41 1011.34 1012.17 1012.90 1013.69 1014.24 1014.53 1014.85 1015.04 1015.41 1015.62 1016.11 1016.87 1017.44 1018.10 1019.18 1019.51 1019.06 1018.74 1018.30 1017.72 1017.30 1016.70 1016.41 1016.54 1016.37 1016.61 1016.46 1016.12 1015.57 1015.44 1014.85 1014.09 1013.50 1012.94 1012.09 1011.41 1010.92 1010.47 1010.16 1009.62 1008.92 1007.94
1010.84 1011.65 1012.27 1013.06 1013.60 1014.09 1014.56 1014.94 1015.54 1015.96 1016.64 1016.41 1016.90 1017.62 1018.53 1019.39 1019.41 1019.14 1018.81 1018.29 1017.72 1017.31 1017.02 1016.99 1017.15 1016.98 1017.11 1017.01 1016.31 1015.61 1014.98 1014.37 1013.90 1013.83 1013.26 1012.35 1011.35 1010.93 1010.59 1009.93 1009.29 1008.94 1008.10
1011.17 1012.00 1012.71 1013.20 1013.62 1014.15 1014.67 1015.06 1015.27 1016.22 1016.16 1016.74 1017.25 1017.96 1018.62 1019.42 1019.54 1019.25 1018.81 1018.11 1017.52 1017.49 1017.53 1017.51 1017.39 1017.56 1017.46 1017.25 1016.68 1015.77 1014.98 1014.43 1013.84 1013.59 1013.31 1012.44 1011.73 1010.88 1010.45 1009.91 1009.32 1008.69 1007.83
1011.42 1012.12 1012.79 1013.42 1014.11 1014.61 1014.96 1015.31 1015.51 1016.06 1016.34 1016.69 1016.99 1017.82 1018.73 1019.56 1019.91 1019.44 1019.05 1018.34 1017.86 1017.76 1017.68 1018.04 1018.10 1018.04 1018.22 1017.52 1017.04 1016.24 1015.34 1014.67 1013.93 1013.28 1012.57 1011.76 1010.91 1010.06 1009.53 1009.57 1008.99 1008.41 1007.58
1011.50 1012.13 1012.86 1013.62 1014.26 1014.88 1015.07 1015.34 1015.60 1016.15 1016.45 1016.62 1016.99 1017.93 1018.68 1019.64 1019.92 1019.62 1019.37 1018.80 1018.40 1018.24 1018.02 1018.10 1018.19 1018.03 1017.99 1017.76 1017.33 1016.60 1015.78 1014.96 1013.96 1012.78 1011.88 1011.06 1010.18 1009.69 1009.22 1008.71 1008.41 1008.24 1007.82
1011.68 1012.45 1013.23 1013.95 1014.56 1015.00 1015.08 1015.43 1015.92 1016.28 1016.66 1016.82 1017.16 1017.97 1018.63 1019.43 1019.92 1019.80 1019.64 1019.38 1019.17 1018.53 1018.02 1017.82 1017.77 1018.09 1017.87 1017.52 1017.21 1016.54 1016.16 1015.36 1014.13 1013.14 1011.71 1011.04 1010.58 1009.98 1009.33 1008.74 1008.28 1008.19 1008.05
1012.42 1013.11 1013.84 1014.48 1014.83 1015.17 1015.28 1015.72 1016.21 1016.35 1016.53 1016.76 1017.05 1017.59 1018.55 1019.26 1019.51 1019.65 1019.74 1019.64 1019.29 1018.77 1018.07 1017.88 1017.67 1017.69 1017.25 1017.03 1016.89 1016.32 1015.59 1014.90 1013.88 1012.73 1012.04 1011.37 1010.67 1010.08 1009.33 1008.68 1008.19 1007.70 1007.25
1013.11 1013.73 1014.28 1014.73 1015.14 1015.27 1015.46 1015.96 1016.40 1016.43 1016.74 1017.14 1017.47 1017.55 1018.03 1018.77 1019.17 1019.63 1019.65 1019.29 1019.04 1018.67 1018.36 1018.10 1017.59 1017.79 1017.31 1016.61 1016.15 1015.55 1014.95 1014.09 1013.52 1012.93 1012.26 1011.63 1010.97 1010.20 1009.43 1008.56 1007.81 1007.14 1006.35
1013.56 1014.25 1014.77 1015.12 1015.45 1015.53 1015.63 1016.04 1016.70 1017.29 1017.43 1017.86 1018.18 1018.18 1018.26 1018.68 1019.59 1019.97 1019.94 1019.51 1019.11 1018.71 1018.50 1017.82 1017.40 1017.24 1016.63 1016.46 1015.91 1015.23 1014.83 1014.26 1013.75 1013.14 1012.41 1011.71 1011.11 1010.27 1009.39 1008.57 1007.66 1006.82 1006.05
1013.88 1014.46 1014.87 1015.18 1015.40 1016.04 1016.81 1017.28 1018.04 1018.68 1018.71 1018.78 1019.03 1019.21 1019.15 1019.38 1020.13 1020.29 1020.26 1019.96 1019.58 1019.22 1018.93 1017.56 1017.06 1016.85 1016.75 1016.51 1015.98 1015.50 1015.17 1014.63 1014.08 1013.36 1012.62 1012.00 1011.33 1010.54 1009.57 1008.50 1007.54 1006.60 1005.86
1013.55 1013.99 1014.30 1015.05 1015.53 1016.36 1017.20 1018.18 1018.76 1019.19 1019.46 1019.66 1019.83 1019.86 1019.99 1020.18 1020.28 1020.20 1020.13 1019.88 1019.56 1019.22 1018.76 1017.61 1017.38 1017.32 1017.30 1017.01 1016.85 1016.22 1015.65 1014.98 1014.54 1013.87 1013.14 1012.55 1011.78 1010.88 1009.84 1008.55 1007.45 1006.46 1005.58
1012.77 1013.17 1013.62 1014.00 1014.82 1016.01 1016.84 1017.62 1018.56 1019.72 1019.96 1020.20 1020.36 1020.24 1020.24 1020.30 1020.07 1020.10 1019.80 1019.42 1018.97 1018.84 1018.26 1017.75 1017.45 1017.26 1017.00 1017.07 1016.92 1016.96 1016.38 1015.57 1014.97 1014.49 1013.69 1012.91 1012.05 1011.14 1010.04 1008.71 1007.53 1006.37 1005.34
1012.46 1012.86 1013.19 1013.70 1014.46 1015.05 1015.44 1015.98 1016.73 1017.73 1018.71 1019.20 1019.91 1020.22 1020.16 1020.25 1019.97 1019.61 1019.27 1018.49 1018.18 1018.32 1017.93 1017.70 1017.50 1017.31 1017.25 1017.18 1016.81 1016.72 1016.53 1015.79 1015.32 1014.88 1014.10 1013.23 1012.30 1011.36 1010.12 1008.76 1007.66 1006.69 1005.73
1012.40 1012.72 1013.12 1013.75 1014.29 1014.73 1015.29 1014.96 1016.05 1016.22 1016.99 1017.89 1018.80 1019.76 1019.55 1019.66 1019.69 1019.63 1019.23 1018.92 1018.39 1018.24 1018.10 1017.78 1017.45 1017.26 1017.11 1017.11 1016.96 1016.62 1016.35 1015.99 1015.76 1015.21 1014.46 1013.58 1012.53 1011.51 1010.18 1008.96 1007.89 1006.85 1006.07
1012.22 1012.70 1012.90 1013.70 1014.28 1014.64 1015.04 1015.07 1015.79 1016.23 1016.62 1017.00 1017.95 1018.35 1018.43 1018.84 1019.20 1018.87 1018.69 1018.56 1018.44 1018.36 1018.23 1017.97 1017.47 1017.39 1017.25 1017.02 1017.06 1016.65 1016.09 1016.13 1016.20 1015.74 1014.80 1013.75 1012.81 1011.68 1010.26 1009.14 1008.17 1007.14 1006.42
1012.30 1012.98 1013.28 1013.60 1013.86 1013.96 1014.34 1014.41 1014.44 1015.71 1016.36 1016.99 1017.95 1018.26 1018.53 1018.71 1018.30 1018.17 1018.35 1018.28 1018.39 1018.39 1018.35 1018.17 1017.62 1017.56 1017.48 1017.19 1017.18 1017.06 1016.48 1016.54 1016.56 1016.20 1015.30 1014.14 1013.16 1011.86 1010.43 1009.43 1008.50 1007.54 1006.88
1012.45 1012.92 1013.24 1013.43 1013.59 1013.89 1014.27 1014.40 1014.74 1015.42 1015.74 1016.54 1017.68 1018.16 1018.35 1018.51 1017.81 1017.96 1018.19 1018.40 1018.48 1018.48 1018.41 1018.27 1018.12 1017.89 1018.06 1018.08 1017.61 1017.46 1017.14 1017.15 1017.03 1016.67 1015.75 1014.69 1013.65 1012.27 1010.71 1009.89 1008.98 1008.01 1007.36
1011.97 1012.67 1013.05 1013.35 1013.67 1014.07 1014.52 1014.58 1014.78 1015.21 1015.67 1016.53 1017.15 1017.56 1017.70 1017.70 1017.79 1017.94 1017.95 1018.17 1018.38 1018.41 1018.31 1018.24 1018.31 1018.18 1018.37 1018.48 1018.60 1018.10 1017.92 1018.01 1017.68 1017.08 1016.10 1015.22 1013.82 1012.55 1011.25 1010.51 1009.61 1008.61 1007.98
1011.57 1012.05 1012.25 1012.70 1013.18 1013.98 1014.42 1014.45 1014.96 1015.33 1015.68 1016.21 1016.77 1017.01 1017.32 1017.70 1017.66 1018.21 1018.13 1018.19 1018.37 1018.34 1018.45 1018.41 1018.55 1018.80 1019.02 1019.31 1019.17 1018.82 1018.66 1018.58 1018.02 1016.91 1016.38 1015.38 1014.01 1012.47 1011.90 1011.06 1010.28 1009.34 1008.78
1011.72 1012.07 1012.52 1012.81 1013.31 1013.90 1014.33 1014.39 1014.78 1015.23 1015.73 1016.13 1016.51 1016.94 1017.34 1017.44 1017.54 1017.75 1018.13 1018.36 1018.23 1018.30 1018.44 1018.66 1018.92 1019.32 1019.39 1019.74 1019.82 1019.37 1019.00 1018.46 1017.84 1017.24 1016.10 1015.06 1013.77 1013.15 1012.50 1011.70 1010.91 1010.02 1009.53
1011.94 1012.33 1012.70 1012.86 1013.26 1013.87 1014.18 1014.47 1014.64 1014.87 1015.36 1016.02 1016.35 1016.74 1017.06 1017.23 1017.37 1017.67 1017.99 1018.28 1018.29 1018.17 1018.55 1018.88 1019.09 1019.76 1020.02 1019.98 1020.10 1019.64 1019.02 1018.37 1017.49 1016.42 1015.88 1014.44 1014.06 1013.74 1012.99 1012.29 1011.55 1010.74 1010.24
Thickness
5842 5837 5830 5823 5817 5814 5809 5806 5799 5792 5782 5777 5773 5767 5762 5757 5752 5744 5739 5733 5726 5720 5714 5707 5700 5694 5684 5677 5669 5662 5653 5643 5636 5657 5649 5651 5650 5653 5656 5656 5658 5660 5663
5846 5839 5832 5827 5822 5817 5810 5802 5795 5787 5781 5773 5766 5760 5756 5751 5742 5735 5729 5721 5715 5709 5702 5694 5686 5680 5667 5656 5647 5641 5632 5629 5621 5628 5629 5630 5630 5636 5637 5637 5642 5644 5646
5848 5840 5833 5827 5821 5810 5803 5797 5791 5783 5774 5768 5763 5756 5749 5739 5729 5722 5714 5708 5701 5693 5685 5679 5670 5659 5645 5639 5630 5624 5618 5611 5609 5611 5615 5615 5619 5621 5622 5625 5626 5628 5631
5847 5839 5830 5822 5814 5806 5798 5790 5781 5775 5767 5760 5753 5746 5734 5722 5713 5707 5700 5694 5688 5680 5672 5665 5654 5639 5629 5618 5610 5602 5597 5590 5593 5595 5601 5605 5608 5611 5610 5609 5611 5614 5614
5844 5833 5823 5817 5810 5801 5791 5783 5775 5766 5758 5749 5742 5735 5724 5709 5697 5690 5688 5683 5674 5668 5661 5649 5637 5625 5611 5598 5583 5574 5568 5567 5574 5583 5590 5593 5596 5599 5598 5602 5599 5602 5606
5836 5826 5819 5811 5803 5795 5789 5781 5775 5766 5759 5749 5735 5725 5711 5694 5684 5681 5676 5670 5665 5656 5649 5640 5625 5613 5596 5579 5562 5549 5541 5546 5559 5570 5578 5583 5588 5589 5591 5589 5589 5591 5596
5828 5820 5813 5805 5797 5788 5781 5773 5762 5754 5743 5739 5728 5717 5700 5685 5677 5672 5666 5662 5657 5649 5639 5625 5608 5599 5584 5565 5551 5539 5537 5542 5551 5557 5566 5574 5581 5583 5582 5585 5584 5582 5587
5820 5813 5806 5798 5791 5782 5773 5764 5758 5744 5738 5728 5717 5707 5693 5678 5669 5664 5659 5656 5652 5639 5624 5612 5601 5587 5574 5561 5550 5544 5543 5545 5552 5556 5559 5567 5572 5577 5576 5576 5577 5578 5583
5813 5806 5798 5790 5780 5772 5763 5755 5750 5739 5729 5720 5712 5701 5686 5671 5660 5655 5651 5648 5641 5630 5617 5600 5589 5578 5563 5559 5551 5548 5549 5549 5552 5557 5563 5568 5573 5576 5579 5574 5573 5573 5577
5805 5799 5792 5783 5773 5763 5757 5749 5740 5731 5721 5713 5702 5692 5680 5663 5652 5647 5641 5639 5632 5623 5610 5598 5587 5578 5566 5558 5554 5550 5549 5551 5555 5561 5567 5571 5575 5577 5576 5577 5572 5567 5567
5799 5791 5782 5773 5764 5758 5751 5743 5732 5722 5711 5702 5692 5683 5674 5659 5645 5640 5635 5630 5621 5616 5608 5599 5590 5577 5569 5562 5557 5556 5550 5550 5555 5559 5568 5569 5571 5573 5574 5575 5572 5562 5556
5785 5777 5769 5761 5755 5748 5742 5733 5723 5715 5706 5697 5688 5679 5666 5653 5643 5636 5629 5621 5614 5610 5605 5597 5590 5580 5577 5569 5561 5558 5556 5554 5558 5564 5565 5567 5570 5573 5574 5574 5572 5566 5562
5769 5761 5756 5751 5744 5739 5732 5723 5713 5707 5699 5687 5678 5672 5662 5651 5642 5631 5624 5621 5614 5607 5601 5593 5587 5578 5574 5573 5567 5564 5562 5566 5565 5565 5567 5568 5571 5572 5573 5574 5574 5573 5570
5754 5747 5743 5738 5731 5728 5724 5716 5704 5694 5686 5676 5666 5660 5656 5646 5632 5624 5618 5614 5610 5605 5598 5595 5590 5584 5580 5572 5570 5569 5569 5569 5568 5568 5569 5569 5569 5570 5572 5574 5575 5577 5577
5743 5737 5733 5729 5724 5714 5706 5698 5686 5674 5667 5661 5653 5646 5642 5635 5622 5614 5609 5606 5602 5596 5589 5595 5593 5588 5580 5574 5571 5568 5567 5567 5566 5568 5568 5568 5568 5569 5571 5574 5575 5577 5576
5738 5734 5730 5721 5716 5705 5694 5682 5669 5660 5652 5644 5638 5633 5628 5621 5614 5610 5606 5601 5596 5590 5589 5595 5590 5584 5576 5573 5565 5565 5565 5566 5564 5564 5565 5565 5565 5567 5569 5574 5577 5578 5579
5737 5733 5728 5724 5715 5699 5688 5678 5665 5646 5638 5631 5625 5622 5618 5612 5612 5606 5603 5599 5596 5590 5595 5591 5588 5583 5581 5574 5569 5561 5560 5562 5562 5560 5562 5562 5563 5565 5568 5574 5576 5580 5582
5732 5726 5724 5717 5708 5699 5693 5684 5674 5657 5644 5635 5620 5614 5610 5606 5604 5605 5602 5602 5600 5592 5590 5586 5583 5581 5576 5571 5570 5565 5560 5560 5559 5558 5559 5561 5562 5564 5568 5573 5576 5577 5580
5723 5720 5715 5708 5701 5693 5682 5676 5666 5661 5652 5640 5625 5609 5608 5602 5598 5595 5594 5593 5591 5588 5583 5580 5578 5577 5574 5569 5566 5565 5561 5558 5555 5554 5556 5558 5561 5563 5568 5572 5574 5574 5575
5717 5711 5707 5697 5689 5681 5672 5667 5656 5649 5641 5636 5624 5617 5611 5603 5597 5596 5592 5588 5584 5580 5575 5572 5573 5570 5568 5566 5561 5561 5562 5555 5548 5547 5551 5554 5556 5560 5566 5569 5570 5573 5574
5707 5700 5693 5688 5680 5676 5669 5664 5658 5642 5632 5623 5607 5603 5596 5595 5597 5594 5588 5583 5577 5572 5568 5564 5565 5562 5559 5558 5555 5552 5554 5549 5543 5540 5543 5548 5551 5556 5563 5566 5567 5569 5569
5693 5687 5682 5677 5673 5666 5658 5654 5644 5633 5626 5615 5599 5592 5588 5587 5590 5586 5580 5574 5569 5564 5560 5557 5553 5552 5547 5543 5544 5542 5542 5538 5534 5532 5535 5539 5542 5549 5557 5559 5562 5565 5565
5685 5676 5670 5665 5658 5649 5641 5638 5632 5622 5614 5601 5595 5588 5586 5584 5581 5578 5575 5569 5563 5558 5554 5550 5545 5543 5538 5533 5529 5530 5528 5524 5523 5523 5527 5529 5536 5542 5548 5549 5553 5557 5558
5677 5671 5667 5660 5651 5638 5631 5627 5616 5609 5603 5595 5588 5585 5581 5575 5574 5567 5565 5560 5555 5551 5545 5542 5537 5531 5526 5520 5518 5517 5515 5513 5515 5518 5519 5522 5529 5538 5537 5540 5543 5547 5548
5664 5658 5650 5644 5634 5625 5618 5614 5607 5599 5592 5586 5582 5578 5573 5570 5567 5563 5556 5551 5548 5544 5539 5533 5526 5521 5516 5510 5506 5507 5508 5510 5511 5512 5515 5518 5525 5526 5527 5530 5532 5537 5537
5649 5643 5636 5632 5624 5614 5606 5600 5596 5593 5586 5578 5577 5572 5567 5564 5561 5556 5550 5543 5540 5537 5529 5523 5518 5509 5504 5501 5497 5499 5502 5503 5506 5511 5511 5515 5515 5514 5516 5518 5521 5525 5525